Hourly Weather Dziadkowice

Today, 15 May, Saturday

Time Temperature Precipitation Wind Pressure Humidity
00:00 +10°C° 0 mm 4 mps 738 mmHg 83%
01:00 +10°C° 0 mm 4 mps 738 mmHg 85%
02:00 +8°C° 0 mm 4 mps 739 mmHg 88%
03:00 +7°C° 0 mm 4 mps 739 mmHg 90%
04:00 +8°C° 0 mm 3 mps 739 mmHg 93%
05:00 +8°C° 0 mm 4 mps 739 mmHg 88%
06:00 +10°C° 0 mm 4 mps 740 mmHg 83%
07:00 +11°C° 0 mm 4 mps 740 mmHg 78%
08:00 +12°C° 0 mm 4 mps 740 mmHg 72%
09:00 +14°C° 0 mm 4 mps 740 mmHg 67%
10:00 +15°C° 0 mm 4 mps 740 mmHg 61%
11:00 +17°C° 0 mm 3 mps 740 mmHg 58%
12:00 +18°C° 0 mm 3 mps 740 mmHg 55%
13:00 +18°C° 0 mm 2 mps 739 mmHg 52%
14:00 +18°C° 0 mm 2 mps 739 mmHg 52%
15:00 +20°C° 0 mm 1 mps 739 mmHg 53%
16:00 +20°C° 0 mm 1 mps 739 mmHg 53%
17:00 +17°C° 0.1 mm 2 mps 738 mmHg 59%
18:00 +16°C° 0.1 mm 2 mps 738 mmHg 65%
19:00 +14°C° 0.1 mm 3 mps 738 mmHg 71%
20:00 +13°C° 0.3 mm 3 mps 738 mmHg 77%
21:00 +12°C° 0.3 mm 3 mps 738 mmHg 82%
22:00 +12°C° 0.3 mm 3 mps 738 mmHg 88%
23:00 +11°C° 0.2 mm 3 mps 738 mmHg 90%

Tomorrow, 16 May, Sunday

Time Temperature Precipitation Wind Pressure Humidity
00:00 +12°C° 0.2 mm 2 mps 738 mmHg 93%
01:00 +12°C° 0.2 mm 2 mps 738 mmHg 95%
02:00 +12°C° 0.4 mm 1 mps 738 mmHg 95%
03:00 +12°C° 0.4 mm 1 mps 738 mmHg 95%
04:00 +11°C° 0.4 mm 1 mps 738 mmHg 95%
05:00 +12°C° 0.1 mm 2 mps 738 mmHg 92%
06:00 +13°C° 0.1 mm 2 mps 738 mmHg 89%
07:00 +12°C° 0.1 mm 3 mps 738 mmHg 86%
08:00 +14°C° 0.2 mm 2 mps 738 mmHg 80%
09:00 +15°C° 0.2 mm 2 mps 738 mmHg 75%
10:00 +16°C° 0.2 mm 2 mps 738 mmHg 69%
11:00 +16°C° 0.5 mm 2 mps 737 mmHg 71%
12:00 +16°C° 0.5 mm 3 mps 737 mmHg 72%
13:00 +16°C° 0.5 mm 3 mps 737 mmHg 74%
14:00 +14°C° 1.1 mm 3 mps 737 mmHg 79%
15:00 +14°C° 1.1 mm 2 mps 737 mmHg 84%
16:00 +13°C° 1.1 mm 2 mps 737 mmHg 89%
17:00 +13°C° 0.2 mm 2 mps 737 mmHg 89%
18:00 +13°C° 0.2 mm 1 mps 737 mmHg 89%
19:00 +12°C° 0.2 mm 1 mps 737 mmHg 90%
20:00 +12°C° 0 mm 1 mps 737 mmHg 91%
21:00 +10°C° 0 mm 2 mps 737 mmHg 92%
22:00 +9°C° 0 mm 2 mps 737 mmHg 93%
23:00 +9°C° 0 mm 2 mps 737 mmHg 93%

Day after tomorrow, 17 May, Monday

Time Temperature Precipitation Wind Pressure Humidity
00:00 +8°C° 0 mm 2 mps 737 mmHg 93%
01:00 +8°C° 0 mm 2 mps 737 mmHg 94%
02:00 +8°C° 0 mm 2 mps 737 mmHg 94%
03:00 +8°C° 0 mm 2 mps 737 mmHg 93%
04:00 +8°C° 0 mm 2 mps 737 mmHg 93%
05:00 +9°C° 0 mm 3 mps 737 mmHg 91%
06:00 +10°C° 0 mm 3 mps 737 mmHg 89%
07:00 +11°C° 0 mm 4 mps 737 mmHg 86%
08:00 +11°C° 0.4 mm 4 mps 738 mmHg 88%
09:00 +11°C° 0.4 mm 3 mps 738 mmHg 89%
10:00 +11°C° 0.4 mm 3 mps 738 mmHg 90%
11:00 +12°C° 0.4 mm 3 mps 738 mmHg 88%
12:00 +12°C° 0.4 mm 4 mps 737 mmHg 85%
13:00 +13°C° 0.4 mm 4 mps 737 mmHg 82%
14:00 +13°C° 0.5 mm 4 mps 737 mmHg 79%
15:00 +14°C° 0.5 mm 4 mps 737 mmHg 76%
16:00 +15°C° 0.5 mm 4 mps 737 mmHg 73%
17:00 +13°C° 0.6 mm 4 mps 737 mmHg 78%
18:00 +12°C° 0.6 mm 4 mps 737 mmHg 83%
19:00 +11°C° 0.6 mm 3 mps 737 mmHg 88%
20:00 +10°C° 0.1 mm 3 mps 737 mmHg 91%
21:00 +8°C° 0.1 mm 4 mps 738 mmHg 93%
22:00 +8°C° 0.1 mm 4 mps 738 mmHg 95%
23:00 +7°C° 0 mm 4 mps 738 mmHg 95%

18 May, Tuesday

Time Temperature Precipitation Wind Pressure Humidity
00:00 +7°C° 0 mm 4 mps 738 mmHg 95%
01:00 +6°C° 0 mm 4 mps 738 mmHg 95%
02:00 +6°C° 0 mm 4 mps 738 mmHg 95%
03:00 +6°C° 0 mm 4 mps 738 mmHg 95%
04:00 +6°C° 0 mm 4 mps 738 mmHg 95%
05:00 +7°C° 0 mm 4 mps 738 mmHg 91%
06:00 +8°C° 0 mm 5 mps 738 mmHg 87%
07:00 +9°C° 0 mm 5 mps 739 mmHg 83%
08:00 +10°C° 0.1 mm 5 mps 739 mmHg 81%
09:00 +10°C° 0.1 mm 6 mps 739 mmHg 79%
10:00 +11°C° 0.1 mm 6 mps 739 mmHg 77%
11:00 +11°C° 0.2 mm 6 mps 739 mmHg 76%
12:00 +13°C° 0.2 mm 6 mps 739 mmHg 74%
13:00 +13°C° 0.2 mm 6 mps 739 mmHg 73%
14:00 +13°C° 0.3 mm 5 mps 739 mmHg 73%
15:00 +13°C° 0.3 mm 5 mps 740 mmHg 73%
16:00 +14°C° 0.3 mm 5 mps 740 mmHg 73%
17:00 +13°C° 0.3 mm 4 mps 740 mmHg 78%
18:00 +12°C° 0.3 mm 3 mps 740 mmHg 84%
19:00 +11°C° 0.3 mm 3 mps 740 mmHg 89%
20:00 +10°C° 0.2 mm 3 mps 740 mmHg 91%
21:00 +9°C° 0.2 mm 3 mps 741 mmHg 93%
22:00 +8°C° 0.2 mm 3 mps 741 mmHg 95%
23:00 +8°C° 0 mm 3 mps 741 mmHg 95%

19 May, Wednesday

Time Temperature Precipitation Wind Pressure Humidity
00:00 +7°C° 0 mm 4 mps 741 mmHg 96%
01:00 +6°C° 0 mm 4 mps 741 mmHg 96%
02:00 +6°C° 0 mm 4 mps 741 mmHg 96%
03:00 +5°C° 0 mm 3 mps 741 mmHg 97%
04:00 +5°C° 0 mm 3 mps 741 mmHg 97%
05:00 +7°C° 0 mm 3 mps 741 mmHg 96%
06:00 +7°C° 0 mm 3 mps 742 mmHg 96%
07:00 +7°C° 0 mm 4 mps 742 mmHg 95%
08:00 +8°C° 0.1 mm 4 mps 742 mmHg 92%
09:00 +10°C° 0.1 mm 4 mps 743 mmHg 88%
10:00 +11°C° 0.1 mm 4 mps 743 mmHg 85%
11:00 +10°C° 0.3 mm 5 mps 743 mmHg 79%
12:00 +12°C° 0.3 mm 5 mps 743 mmHg 74%
13:00 +13°C° 0.3 mm 6 mps 743 mmHg 68%
14:00 +13°C° 0.2 mm 6 mps 743 mmHg 67%
15:00 +13°C° 0.2 mm 5 mps 743 mmHg 66%
16:00 +13°C° 0.2 mm 5 mps 743 mmHg 65%
17:00 +12°C° 0.1 mm 4 mps 743 mmHg 70%
18:00 +11°C° 0.1 mm 4 mps 743 mmHg 76%
19:00 +10°C° 0.1 mm 3 mps 743 mmHg 81%
20:00 +9°C° 0 mm 3 mps 743 mmHg 84%
21:00 +8°C° 0 mm 3 mps 743 mmHg 88%
22:00 +7°C° 0 mm 3 mps 744 mmHg 91%
23:00 +7°C° 0 mm 3 mps 744 mmHg 92%

20 May, Thursday

Time Temperature Precipitation Wind Pressure Humidity
00:00 +5°C° 0 mm 3 mps 744 mmHg 93%
01:00 +5°C° 0 mm 3 mps 744 mmHg 94%
02:00 +5°C° 0 mm 3 mps 744 mmHg 94%
03:00 +4°C° 0 mm 3 mps 744 mmHg 95%
04:00 +4°C° 0 mm 3 mps 744 mmHg 96%
05:00 +5°C° 0 mm 4 mps 745 mmHg 94%
06:00 +6°C° 0 mm 5 mps 745 mmHg 92%
07:00 +7°C° 0 mm 5 mps 745 mmHg 90%
08:00 +8°C° 0 mm 6 mps 745 mmHg 88%
09:00 +8°C° 0 mm 6 mps 746 mmHg 85%
10:00 +8°C° 0 mm 6 mps 746 mmHg 83%
11:00 +9°C° 0.1 mm 6 mps 746 mmHg 77%
12:00 +10°C° 0.1 mm 6 mps 746 mmHg 71%
13:00 +11°C° 0.1 mm 6 mps 746 mmHg 64%
14:00 +11°C° 0.2 mm 6 mps 746 mmHg 66%
15:00 +11°C° 0.2 mm 6 mps 746 mmHg 68%
16:00 +11°C° 0.2 mm 6 mps 746 mmHg 70%
17:00 +10°C° 0.1 mm 5 mps 746 mmHg 75%
18:00 +10°C° 0.1 mm 4 mps 746 mmHg 79%
19:00 +9°C° 0.1 mm 3 mps 746 mmHg 84%
20:00 +8°C° 0 mm 3 mps 746 mmHg 86%
21:00 +7°C° 0 mm 2 mps 746 mmHg 88%
22:00 +6°C° 0 mm 2 mps 746 mmHg 90%
23:00 +6°C° 0 mm 2 mps 746 mmHg 91%
Show more

We Need Your Consent

Meteoprog and our Service Providers may store and access personal data such as cookies, device identifiers or other similar technologies on your device and process such data to personalise content and ads, as well as provide social media features and to analyse the traffic.

  • Store and/or access information on your device

    Cookies, device identifiers or other information can be stored or accessed on your device for the purposes indicated above.

  • Personalised ads and content, ad and content measurement, audience insights, and products development

    Ads and content can be personalised based on a profile. More data can be added to better personalise ads and content. Ad and content performance can be measured. Insights about the audience who saw the ads and content can be derived. Such data can be used to develop or improve user’s experience, systems and software.

By clicking ‘I Agree’ you will allow the use of indicated cookies, device identifiers, web beacons or other similar technologies. Your settings can be changed in the browser on your device.

For certain purposes, legitimate interests may be relied on, rather than consent. You can read more about this in our Privacy and Cookie Policy.